DKH2270 ZYBS-ZSQD

Flight info

Callsign DKH2270
Flight time N/A
Altitude 30100
Route NUBKI A588 UDETI W106 MAKNO W5 HCH
Aircraft A321/M-SDE3FGHIRWY/LB1

Departure

Time 2026-04-19 07:31
Airport Changbaishan Airport (ZYBS)

Arrival

Time N/A
Airport Qingdao Jiaodong International Airport (ZSQD)
Time Latitude Longitude Altitude Speed Heading
2026-04-19 07:06 42.06389 127.60645 2904 ft 0 kts 96°
2026-04-19 07:18 42.06389 127.60644 2901 ft 0 kts 96°
2026-04-19 07:21 42.06389 127.60638 2901 ft 3 kts 96°
2026-04-19 07:21 42.06391 127.60603 2901 ft 3 kts 95°
2026-04-19 07:21 42.06392 127.60574 2901 ft 4 kts 67°
2026-04-19 07:21 42.06377 127.60552 2901 ft 4 kts 15°
2026-04-19 07:22 42.06361 127.60548 2901 ft 0 kts
2026-04-19 07:25 42.06374 127.60550 2901 ft 7 kts
2026-04-19 07:25 42.06444 127.60558 2901 ft 10 kts
2026-04-19 07:25 42.06505 127.60549 2901 ft 8 kts 320°
2026-04-19 07:25 42.06525 127.60457 2901 ft 15 kts 291°
2026-04-19 07:26 42.06623 127.60431 2901 ft 14 kts
2026-04-19 07:26 42.06716 127.60442 2901 ft 13 kts
2026-04-19 07:26 42.06795 127.60452 2901 ft 11 kts
2026-04-19 07:26 42.06876 127.60461 2901 ft 17 kts
2026-04-19 07:27 42.06969 127.60472 2901 ft 24 kts
2026-04-19 07:27 42.07186 127.60493 2901 ft 34 kts
2026-04-19 07:27 42.07416 127.60524 2901 ft 32 kts
2026-04-19 07:27 42.07610 127.60546 2901 ft 24 kts
2026-04-19 07:28 42.07723 127.60560 2903 ft 10 kts
2026-04-19 07:28 42.07789 127.60570 2901 ft 9 kts
2026-04-19 07:28 42.07829 127.60540 2901 ft 6 kts 287°
2026-04-19 07:28 42.07835 127.60506 2901 ft 0 kts 283°
2026-04-19 07:29 42.07843 127.60446 2901 ft 14 kts 278°
2026-04-19 07:29 42.07775 127.60357 2901 ft 16 kts 186°
2026-04-19 07:30 42.07760 127.60355 2901 ft 0 kts 186°
2026-04-19 07:30 42.07623 127.60338 2901 ft 55 kts 186°
2026-04-19 07:30 42.07012 127.60261 2902 ft 119 kts 184°
2026-04-19 07:31 42.06008 127.60136 2912 ft 167 kts 192°
2026-04-19 07:31 42.04841 127.59987 3548 ft 165 kts 188°
2026-04-19 07:31 42.03720 127.59904 4368 ft 158 kts 200°
2026-04-19 07:31 42.02857 127.59031 4721 ft 167 kts 245°
2026-04-19 07:32 42.02824 127.57412 4890 ft 190 kts 277°
2026-04-19 07:32 42.03080 127.55564 4991 ft 212 kts 274°
2026-04-19 07:32 42.03287 127.53474 5123 ft 240 kts 272°
2026-04-19 07:32 42.03465 127.51173 5651 ft 252 kts 272°
2026-04-19 07:33 42.03640 127.48799 6323 ft 257 kts 272°
2026-04-19 07:33 42.03819 127.46427 7245 ft 254 kts 272°
2026-04-19 07:33 42.03988 127.44068 8102 ft 253 kts 271°
2026-04-19 07:33 42.04153 127.41684 8777 ft 259 kts 271°
2026-04-19 07:34 42.04342 127.39255 9555 ft 260 kts 272°
2026-04-19 07:34 42.04534 127.36839 10328 ft 261 kts 272°
2026-04-19 07:34 42.04732 127.34330 10596 ft 281 kts 272°
2026-04-19 07:34 42.04941 127.31626 10728 ft 303 kts 272°
2026-04-19 07:35 42.05167 127.28696 10849 ft 324 kts 272°
2026-04-19 07:35 42.05405 127.25591 10981 ft 344 kts 273°
2026-04-19 07:35 42.05656 127.22296 11104 ft 363 kts 273°
2026-04-19 07:35 42.05919 127.18851 11418 ft 373 kts 273°
2026-04-19 07:36 42.06188 127.15370 11944 ft 377 kts 273°
2026-04-19 07:36 42.06461 127.11835 12474 ft 381 kts 273°
2026-04-19 07:36 42.06734 127.08274 12989 ft 385 kts 273°
2026-04-19 07:36 42.06989 127.04670 13501 ft 388 kts 270°
2026-04-19 07:37 42.06949 127.01034 13959 ft 390 kts 266°
2026-04-19 07:37 42.06852 126.97377 14462 ft 392 kts 265°
2026-04-19 07:37 42.06749 126.93707 14971 ft 393 kts 265°
2026-04-19 07:37 42.06645 126.90022 15509 ft 394 kts 265°
2026-04-19 07:38 42.06543 126.86324 16028 ft 396 kts 265°
2026-04-19 07:38 42.06443 126.82621 16526 ft 397 kts 265°
2026-04-19 07:38 42.06340 126.78892 17042 ft 399 kts 265°
2026-04-19 07:38 42.06235 126.75160 17576 ft 401 kts 265°
2026-04-19 07:39 42.06129 126.71453 18085 ft 402 kts 265°
2026-04-19 07:39 42.06019 126.67680 18502 ft 405 kts 265°
2026-04-19 07:39 42.05908 126.63880 18899 ft 408 kts 265°
2026-04-19 07:39 42.05793 126.60056 19280 ft 411 kts 265°
2026-04-19 07:40 42.05677 126.56202 19651 ft 414 kts 265°
2026-04-19 07:40 42.05559 126.52320 20009 ft 416 kts 265°
2026-04-19 07:40 42.05437 126.48410 20362 ft 420 kts 265°
2026-04-19 07:40 42.05313 126.44475 20724 ft 423 kts 265°
2026-04-19 07:41 42.05189 126.40515 21086 ft 425 kts 265°
2026-04-19 07:41 42.05064 126.36521 21457 ft 428 kts 265°
2026-04-19 07:41 42.04935 126.32515 21786 ft 431 kts 265°
2026-04-19 07:41 42.04806 126.28531 22113 ft 434 kts 265°
2026-04-19 07:42 42.04672 126.24469 22466 ft 436 kts 265°
2026-04-19 07:42 42.04536 126.20382 22819 ft 439 kts 265°
2026-04-19 07:42 42.04396 126.16266 23187 ft 441 kts 266°
2026-04-19 07:42 42.04254 126.12140 23510 ft 443 kts 266°
2026-04-19 07:43 42.04111 126.07995 23798 ft 445 kts 266°
2026-04-19 07:43 42.03967 126.03831 24139 ft 444 kts 266°
2026-04-19 07:43 42.03824 125.99692 24571 ft 442 kts 266°
2026-04-19 07:43 42.03680 125.95572 25010 ft 440 kts 266°
2026-04-19 07:44 42.03536 125.91468 25426 ft 438 kts 266°
2026-04-19 07:44 42.03392 125.87382 25826 ft 437 kts 266°
2026-04-19 07:44 42.03247 125.83357 26236 ft 436 kts 266°
2026-04-19 07:44 42.03097 125.79296 26656 ft 434 kts 266°
2026-04-19 07:45 42.02945 125.75250 27069 ft 432 kts 266°
2026-04-19 07:45 42.02792 125.71223 27477 ft 431 kts 266°
2026-04-19 07:45 42.02636 125.67200 27874 ft 430 kts 267°
2026-04-19 07:45 42.02481 125.63185 28282 ft 429 kts 267°
2026-04-19 07:46 42.02327 125.59193 28684 ft 428 kts 267°
2026-04-19 07:46 42.02174 125.55201 29053 ft 427 kts 267°
2026-04-19 07:46 42.02019 125.51211 29456 ft 426 kts 267°
2026-04-19 07:46 42.01864 125.47242 29836 ft 426 kts 267°
2026-04-19 07:47 42.01707 125.43279 29923 ft 426 kts 267°
2026-04-19 07:47 42.01390 125.35318 29926 ft 426 kts 267°
2026-04-19 07:48 42.01067 125.27364 29924 ft 426 kts 267°
2026-04-19 07:48 42.00735 125.19399 29921 ft 426 kts 267°
2026-04-19 07:49 42.00388 125.11437 29917 ft 427 kts 266°
2026-04-19 07:49 42.00035 125.03468 29910 ft 427 kts 266°
2026-04-19 07:50 41.99687 124.95552 29905 ft 427 kts 266°
2026-04-19 07:50 41.99330 124.87579 29908 ft 427 kts 266°
2026-04-19 07:51 41.98977 124.79616 29908 ft 427 kts 266°
2026-04-19 07:51 41.98615 124.71645 29905 ft 427 kts 266°
2026-04-19 07:52 41.97391 124.63878 29907 ft 428 kts 248°
2026-04-19 07:52 41.95927 124.60383 29907 ft 431 kts 237°
2026-04-19 07:52 41.93950 124.57338 29904 ft 436 kts 226°
2026-04-19 07:52 41.91528 124.54860 29900 ft 441 kts 215°
2026-04-19 07:53 41.88858 124.52804 29900 ft 443 kts 214°
2026-04-19 07:53 41.83501 124.48720 29895 ft 443 kts 214°
2026-04-19 07:54 41.78372 124.44813 29890 ft 444 kts 214°
2026-04-19 07:54 41.73001 124.40732 29890 ft 444 kts 214°
2026-04-19 07:55 41.68535 124.37345 29893 ft 444 kts 214°
2026-04-19 07:55 41.62281 124.32611 29896 ft 445 kts 213°
2026-04-19 07:56 41.56892 124.28538 29899 ft 445 kts 213°
2026-04-19 07:56 41.51504 124.24467 29897 ft 445 kts 213°
2026-04-19 07:57 41.46101 124.20410 29902 ft 446 kts 213°
2026-04-19 07:57 41.41578 124.17012 29903 ft 446 kts 213°
2026-04-19 07:58 41.36152 124.12987 29907 ft 447 kts 213°
2026-04-19 07:58 41.30719 124.09081 29909 ft 447 kts 213°
2026-04-19 07:59 41.25254 124.05173 29912 ft 447 kts 213°
2026-04-19 07:59 41.19786 124.01229 29919 ft 447 kts 213°
2026-04-19 08:00 41.14332 123.97285 29918 ft 447 kts 213°
2026-04-19 08:00 41.08870 123.93351 29919 ft 447 kts 213°
2026-04-19 08:01 41.03405 123.89430 29920 ft 446 kts 213°
2026-04-19 08:01 40.97938 123.85513 29927 ft 447 kts 213°
2026-04-19 08:02 40.92464 123.81591 29929 ft 447 kts 213°
2026-04-19 08:02 40.86992 123.77684 29940 ft 447 kts 213°
2026-04-19 08:03 40.81519 123.73785 29939 ft 447 kts 214°
2026-04-19 08:03 40.76090 123.69808 29947 ft 446 kts 214°
2026-04-19 08:04 40.70678 123.65793 29951 ft 446 kts 214°
2026-04-19 08:04 40.65257 123.61800 29956 ft 446 kts 214°
2026-04-19 08:05 40.59825 123.57831 29962 ft 446 kts 214°
2026-04-19 08:05 40.54436 123.53889 29967 ft 446 kts 214°
2026-04-19 08:06 40.49004 123.49926 29966 ft 446 kts 214°
2026-04-19 08:06 40.43576 123.45970 29967 ft 447 kts 214°
2026-04-19 08:07 40.38141 123.42016 29970 ft 447 kts 214°
2026-04-19 08:07 40.32695 123.38067 29976 ft 447 kts 214°
2026-04-19 08:08 40.27247 123.34117 29982 ft 447 kts 214°
2026-04-19 08:08 40.21799 123.30174 29970 ft 448 kts 214°
2026-04-19 08:09 40.16342 123.26232 29973 ft 448 kts 214°
2026-04-19 08:09 40.10980 123.22360 29978 ft 449 kts 214°
2026-04-19 08:10 40.05497 123.18425 29978 ft 449 kts 214°
2026-04-19 08:10 40.00018 123.14480 29979 ft 450 kts 214°
2026-04-19 08:11 39.94546 123.10504 29986 ft 451 kts 214°
2026-04-19 08:11 39.89066 123.06535 29990 ft 451 kts 214°
2026-04-19 08:12 39.83605 123.02587 29987 ft 452 kts 214°
2026-04-19 08:12 39.78113 122.98604 29993 ft 453 kts 214°
2026-04-19 08:13 39.72602 122.94606 29994 ft 454 kts 214°
2026-04-19 08:13 39.67079 122.90610 30002 ft 455 kts 214°
2026-04-19 08:14 39.61544 122.86616 30001 ft 456 kts 214°
2026-04-19 08:14 39.53210 122.80639 30002 ft 457 kts 214°
2026-04-19 08:15 39.47637 122.76649 29997 ft 457 kts 214°
2026-04-19 08:15 39.42066 122.72664 29997 ft 458 kts 214°
2026-04-19 08:16 39.36485 122.68670 30000 ft 459 kts 214°
2026-04-19 08:16 39.30889 122.64684 30000 ft 459 kts 214°
2026-04-19 08:17 39.25298 122.60682 30003 ft 459 kts 215°
2026-04-19 08:17 39.19886 122.56430 29996 ft 458 kts 217°
2026-04-19 08:18 39.14520 122.52006 29992 ft 458 kts 218°
2026-04-19 08:18 39.09123 122.47619 29998 ft 459 kts 217°
2026-04-19 08:19 39.03681 122.43283 30003 ft 460 kts 217°
2026-04-19 08:19 38.98225 122.38960 30005 ft 461 kts 217°
2026-04-19 08:20 38.92759 122.34627 30001 ft 462 kts 217°
2026-04-19 08:20 38.87294 122.30297 29999 ft 462 kts 216°
2026-04-19 08:21 38.81810 122.25963 29994 ft 463 kts 216°
2026-04-19 08:21 38.76320 122.21633 30007 ft 464 kts 216°
2026-04-19 08:22 38.71376 122.16520 29999 ft 453 kts 233°
2026-04-19 08:22 38.68007 122.09842 29999 ft 443 kts 250°
2026-04-19 08:23 38.66158 122.02384 30000 ft 440 kts 258°
2026-04-19 08:23 38.64499 121.94895 29997 ft 441 kts 257°
2026-04-19 08:24 38.62797 121.87311 29997 ft 442 kts 257°
2026-04-19 08:24 38.61111 121.79806 29987 ft 442 kts 257°
2026-04-19 08:25 38.59416 121.72258 29992 ft 443 kts 257°
2026-04-19 08:25 38.57718 121.64680 29992 ft 443 kts 257°
2026-04-19 08:26 38.56014 121.57115 29989 ft 443 kts 257°
2026-04-19 08:26 38.54297 121.49551 29990 ft 444 kts 257°
2026-04-19 08:27 38.52567 121.41990 29993 ft 444 kts 257°
2026-04-19 08:27 38.50830 121.34420 29994 ft 444 kts 257°
2026-04-19 08:28 38.49098 121.26856 29991 ft 444 kts 257°
2026-04-19 08:28 38.47363 121.19282 29988 ft 444 kts 256°
2026-04-19 08:29 38.46381 121.15531 29745 ft 448 kts 250°
2026-04-19 08:29 38.44954 121.11982 29367 ft 452 kts 241°
2026-04-19 08:29 38.43263 121.08594 29028 ft 454 kts 240°
2026-04-19 08:29 38.41570 121.05185 28669 ft 455 kts 241°
2026-04-19 08:30 38.39885 121.01772 28317 ft 455 kts 241°
2026-04-19 08:30 38.38202 120.98351 27984 ft 456 kts 241°
2026-04-19 08:30 38.36514 120.94923 27644 ft 457 kts 240°
2026-04-19 08:30 38.34825 120.91497 27296 ft 457 kts 240°
2026-04-19 08:31 38.33132 120.88067 26960 ft 458 kts 240°
2026-04-19 08:31 38.31455 120.84683 26634 ft 458 kts 240°
2026-04-19 08:31 38.29752 120.81260 26309 ft 458 kts 240°
2026-04-19 08:31 38.28041 120.77830 25991 ft 459 kts 239°
2026-04-19 08:32 38.26071 120.74552 25661 ft 463 kts 231°
2026-04-19 08:32 38.23773 120.71748 25348 ft 466 kts 222°
2026-04-19 08:32 38.21069 120.69340 25029 ft 471 kts 213°
2026-04-19 08:32 38.18188 120.67464 24726 ft 473 kts 209°
2026-04-19 08:33 38.15225 120.65632 24417 ft 474 kts 209°
2026-04-19 08:33 38.12255 120.63793 24118 ft 475 kts 209°
2026-04-19 08:33 38.09289 120.61958 23813 ft 473 kts 209°
2026-04-19 08:33 38.06336 120.60130 23522 ft 471 kts 209°
2026-04-19 08:34 38.03336 120.58455 23182 ft 471 kts 203°
2026-04-19 08:34 38.00179 120.57339 22824 ft 473 kts 194°
2026-04-19 08:34 37.96913 120.56834 22476 ft 474 kts 186°
2026-04-19 08:34 37.93625 120.56603 22140 ft 472 kts 186°
2026-04-19 08:35 37.90359 120.56371 21802 ft 469 kts 186°
2026-04-19 08:35 37.87109 120.56133 21464 ft 467 kts 186°
2026-04-19 08:35 37.83870 120.55889 21135 ft 464 kts 187°
2026-04-19 08:35 37.80657 120.55644 20806 ft 462 kts 187°
2026-04-19 08:36 37.77453 120.55399 20481 ft 460 kts 187°
2026-04-19 08:36 37.74275 120.55156 20166 ft 458 kts 187°
2026-04-19 08:36 37.71103 120.54915 19847 ft 456 kts 187°
2026-04-19 08:36 37.67947 120.54673 19534 ft 454 kts 187°
2026-04-19 08:37 37.64837 120.54137 19224 ft 448 kts 195°
2026-04-19 08:37 37.61849 120.53110 18920 ft 443 kts 200°
2026-04-19 08:37 37.58939 120.51998 18623 ft 441 kts 200°
2026-04-19 08:37 37.56004 120.50880 18324 ft 440 kts 200°
2026-04-19 08:38 37.53086 120.49774 18006 ft 438 kts 200°
2026-04-19 08:38 37.50175 120.48675 17650 ft 432 kts 200°
2026-04-19 08:38 37.47345 120.47610 17363 ft 417 kts 200°
2026-04-19 08:38 37.44608 120.46579 17085 ft 407 kts 200°
2026-04-19 08:39 37.41894 120.45551 16799 ft 405 kts 200°
2026-04-19 08:39 37.39210 120.44530 16521 ft 403 kts 200°
2026-04-19 08:39 37.36526 120.43505 16245 ft 401 kts 199°
2026-04-19 08:39 37.33853 120.42487 15970 ft 400 kts 199°
2026-04-19 08:40 37.31198 120.41479 15698 ft 398 kts 199°
2026-04-19 08:40 37.28555 120.40481 15427 ft 396 kts 199°
2026-04-19 08:40 37.25929 120.39491 15161 ft 394 kts 199°
2026-04-19 08:40 37.23310 120.38506 14896 ft 389 kts 199°
2026-04-19 08:41 37.20758 120.37548 14631 ft 377 kts 199°
2026-04-19 08:41 37.18278 120.36617 14371 ft 368 kts 199°
2026-04-19 08:41 37.15844 120.35699 14115 ft 363 kts 198°
2026-04-19 08:41 37.13463 120.34803 13862 ft 361 kts 198°
2026-04-19 08:42 37.11068 120.33904 13597 ft 359 kts 198°
2026-04-19 08:42 37.08690 120.33012 13306 ft 356 kts 198°
2026-04-19 08:42 37.06319 120.32122 13025 ft 355 kts 198°
2026-04-19 08:42 37.03962 120.31237 12742 ft 353 kts 198°
2026-04-19 08:43 37.01612 120.30358 12459 ft 352 kts 198°
2026-04-19 08:43 36.99270 120.29484 12182 ft 350 kts 198°
2026-04-19 08:43 36.96965 120.28549 11905 ft 347 kts 205°
2026-04-19 08:43 36.94973 120.26932 11701 ft 335 kts 224°
2026-04-19 08:44 36.93587 120.24772 11458 ft 307 kts 240°
2026-04-19 08:44 36.92812 120.22389 11148 ft 289 kts 252°
2026-04-19 08:44 36.92222 120.20006 10843 ft 286 kts 252°
2026-04-19 08:44 36.91634 120.17655 10514 ft 282 kts 251°
2026-04-19 08:45 36.91047 120.15322 10215 ft 280 kts 251°
2026-04-19 08:45 36.90460 120.13009 9915 ft 278 kts 251°
2026-04-19 08:45 36.89874 120.10711 9585 ft 277 kts 251°
2026-04-19 08:45 36.89294 120.08439 9249 ft 276 kts 251°
2026-04-19 08:46 36.88646 120.06192 8922 ft 273 kts 240°
2026-04-19 08:46 36.87417 120.04434 8584 ft 269 kts 214°
2026-04-19 08:46 36.85714 120.03578 8261 ft 267 kts 189°
2026-04-19 08:46 36.84097 120.03674 7899 ft 270 kts 171°
2026-04-19 08:47 36.82283 120.04138 7760 ft 260 kts 169°
2026-04-19 08:47 36.80575 120.04661 7749 ft 247 kts 167°
2026-04-19 08:47 36.78926 120.05281 7427 ft 252 kts 165°
2026-04-19 08:47 36.77237 120.05974 7364 ft 255 kts 163°
2026-04-19 08:48 36.75550 120.06696 7307 ft 257 kts 163°
2026-04-19 08:48 36.73886 120.07448 7392 ft 253 kts 162°
2026-04-19 08:48 36.72240 120.08191 7471 ft 250 kts 163°
2026-04-19 08:48 36.70570 120.08911 7202 ft 262 kts 163°
2026-04-19 08:49 36.69403 120.09390 6964 ft 271 kts 164°
2026-04-19 08:49 36.67043 120.10376 7054 ft 252 kts 163°
2026-04-19 08:49 36.65975 120.10856 7091 ft 232 kts 165°
2026-04-19 08:49 36.64476 120.11386 6804 ft 222 kts 175°
2026-04-19 08:50 36.63081 120.11306 6108 ft 232 kts 194°
2026-04-19 08:50 36.61564 120.10509 5104 ft 239 kts 224°
2026-04-19 08:50 36.60034 120.08699 4833 ft 218 kts 226°
2026-04-19 08:50 36.59343 120.07815 4636 ft 213 kts 225°